Theta_e
358 358 359 357 355 354 358 356 353 353 352 352 347 346 348 352 349 347 346 346 347 345 343 347 348 344 346 352 349 347 348 349 350 348 344 344 342 349 351 352 352 348 348
354 356 357 355 354 355 356 356 357 356 351 351 340 342 349 351 350 347 346 345 346 346 344 344 344 345 345 348 351 348 347 347 348 350 348 346 336 348 348 345 345 343 351
355 355 355 357 357 356 353 355 355 351 350 346 341 349 348 350 343 344 344 345 346 346 345 343 343 345 345 343 346 351 349 351 349 344 348 346 347 349 351 347 347 349 348
355 357 355 356 356 355 353 354 354 353 354 350 343 346 348 348 341 342 342 346 347 346 345 344 345 346 345 343 346 348 352 349 351 349 351 346 351 350 349 349 349 350 352
351 352 353 354 353 350 350 349 349 349 348 350 346 347 347 336 346 345 348 347 347 345 343 347 344 343 343 346 345 345 349 348 349 352 351 346 347 347 349 347 349 349 348
343 345 346 347 347 347 346 347 337 344 346 335 335 334 344 343 340 349 347 344 343 343 346 351 345 348 347 351 346 347 347 345 346 350 348 347 348 348 348 348 352 350 350
339 338 339 340 342 343 344 340 343 336 330 340 340 341 345 347 337 339 348 344 344 343 346 347 345 344 351 351 346 345 347 347 344 345 346 345 346 343 345 347 350 348 346
334 334 336 336 335 333 330 330 331 332 330 330 330 326 331 345 347 338 340 345 341 342 344 343 344 341 343 348 347 346 344 344 344 344 343 343 340 339 342 343 345 343 342
332 333 333 333 335 335 333 328 324 326 324 322 324 326 329 335 339 343 347 337 342 344 345 346 344 341 340 341 348 350 346 344 342 340 341 342 341 341 342 347 346 345 345
331 335 334 334 333 333 333 334 330 327 326 323 324 323 328 340 346 338 346 345 331 334 347 345 345 343 342 341 342 347 346 348 345 348 346 349 350 348 345 342 344 344 343
332 333 333 333 334 334 334 333 334 331 332 332 326 329 323 327 333 330 330 337 345 343 332 332 342 347 344 344 342 341 341 343 346 345 344 348 350 348 348 345 343 345 344
333 333 333 332 332 333 334 335 335 336 336 334 333 339 332 325 322 327 332 335 344 346 341 334 339 345 345 343 343 342 340 342 342 342 342 342 346 349 347 345 344 346 345
329 331 331 331 330 332 331 331 332 332 332 334 340 340 338 338 338 335 337 340 341 346 344 343 344 351 350 348 346 346 342 341 341 341 342 341 346 348 347 347 347 347 345
330 328 329 329 329 329 329 331 332 333 334 334 335 336 336 335 335 334 339 343 341 344 347 345 345 344 346 349 347 347 347 345 344 345 345 342 342 344 345 346 347 347 345
330 330 330 329 329 329 331 331 332 333 333 334 335 333 332 335 339 339 340 340 339 344 351 349 347 346 345 346 347 347 348 347 348 347 347 345 343 344 344 347 346 347 346
331 332 331 330 330 329 330 330 331 329 328 329 330 331 331 330 329 335 338 343 342 341 350 348 349 348 347 344 345 346 346 347 348 347 344 345 347 346 347 347 347 347 347
327 328 329 329 330 330 328 329 330 329 331 329 329 330 329 328 328 328 329 334 333 335 341 349 347 346 347 345 344 345 346 345 344 345 345 344 344 347 347 346 346 345 343
327 327 327 327 328 329 330 330 329 330 330 330 329 330 330 329 329 326 326 328 331 329 328 327 338 344 341 340 341 342 344 342 340 344 347 345 345 343 346 346 346 344 342
327 328 327 328 327 328 329 329 330 329 330 330 329 328 329 331 330 330 329 326 327 326 329 328 327 340 342 340 339 339 341 340 338 340 340 335 345 346 345 346 345 343 341
326 326 324 323 326 327 329 329 329 329 330 329 330 328 329 331 331 330 331 329 324 323 327 329 330 333 341 341 340 343 343 343 340 340 343 346 346 345 347 344 344 341 343
330 329 327 327 328 329 329 330 330 329 330 331 329 329 329 328 328 330 332 332 334 333 329 332 338 332 338 341 343 340 340 341 343 341 339 343 344 343 347 342 345 341 343
328 329 328 329 329 329 328 329 328 329 328 329 330 330 328 327 328 328 330 334 334 333 328 326 327 339 343 343 341 338 341 340 341 341 339 338 342 345 344 343 340 341 341
325 326 329 330 328 328 327 328 324 325 330 330 331 331 331 330 327 328 330 330 330 330 336 336 333 337 340 342 341 340 338 339 341 342 341 339 336 340 344 343 343 344 342
323 325 327 328 329 330 330 330 330 330 329 330 329 331 332 331 329 329 330 330 330 335 338 338 337 337 335 338 340 341 342 342 341 340 341 340 340 339 338 341 338 341 341
319 323 325 327 328 328 330 329 329 330 330 332 332 332 332 329 330 330 332 331 332 332 335 337 338 335 336 336 337 339 339 339 340 340 341 340 339 340 340 339 341 339 339
321 323 324 325 326 328 331 332 331 330 331 332 333 332 332 331 331 331 332 331 332 328 332 335 336 338 339 340 338 338 338 337 338 339 341 340 340 339 339 343 342 342 339
Wind_Speed
7 15 18 19 24 16 19 21 21 21 22 23 21 27 23 24 25 25 28 28 30 29 29 26 26 25 27 21 23 22 18 15 12 11 18 11 15 14 8 13 11 11 8
10 6 22 15 15 16 17 16 19 22 20 20 19 19 22 22 23 23 23 27 32 30 30 28 27 26 24 26 20 23 21 15 14 16 14 16 24 15 14 16 14 16 13
10 12 12 17 17 17 17 20 21 21 27 20 14 16 20 19 19 21 23 25 27 27 26 26 26 24 25 25 27 23 20 15 19 18 11 14 9 11 12 12 12 13 8
3 3 8 8 8 9 11 9 12 16 17 18 16 16 16 18 23 21 19 19 22 24 22 24 24 23 23 24 24 26 22 25 14 16 14 11 8 11 12 14 14 13 12
3 1 3 5 7 8 10 11 14 16 16 16 18 24 17 12 25 22 20 20 23 23 21 22 21 22 22 22 25 27 23 22 22 16 18 14 15 16 15 16 15 13 12
2 2 3 5 5 6 7 8 9 9 14 15 18 15 22 18 29 28 27 26 26 26 25 23 20 20 21 18 19 21 25 23 22 17 18 19 16 15 14 13 11 12 13
10 9 9 9 10 10 11 11 10 11 10 14 18 22 22 24 20 26 30 27 23 24 27 28 25 26 24 24 22 22 23 21 23 22 23 22 19 17 16 18 16 17 22
20 18 16 16 16 17 18 17 16 16 19 19 19 18 16 20 20 21 26 27 28 23 26 25 25 26 28 26 24 22 25 28 27 25 24 23 20 18 17 17 20 20 21
24 26 27 24 22 23 25 27 25 22 23 25 25 27 25 22 16 17 10 8 19 27 26 26 26 25 27 24 25 26 23 25 28 27 27 26 23 22 21 19 18 16 16
25 23 24 26 30 31 31 30 34 34 30 30 28 28 27 25 20 14 11 18 16 17 23 29 29 30 24 26 30 29 27 28 25 24 23 23 22 22 20 21 23 24 22
27 27 27 28 28 29 32 34 33 37 35 32 31 32 34 31 30 27 17 20 22 18 21 28 32 27 31 32 29 30 30 31 31 30 26 25 24 26 26 23 24 24 25
29 29 28 31 32 31 32 32 31 30 32 33 30 29 31 32 31 28 24 21 26 29 32 19 25 27 23 31 38 37 32 30 33 32 31 31 28 25 23 23 22 21 18
37 33 33 36 34 32 32 34 36 37 38 37 28 25 26 26 24 20 24 24 22 32 34 36 29 25 32 27 28 32 37 33 34 34 34 31 28 25 26 24 22 24 21
37 37 35 36 38 35 34 32 32 33 33 32 31 29 29 24 25 26 25 25 22 26 36 36 33 30 28 31 29 30 31 38 36 37 38 34 32 31 31 28 27 29 28
40 36 34 34 33 32 32 31 32 32 32 31 31 31 27 24 15 17 22 24 27 26 28 33 36 36 36 32 29 30 33 33 36 35 33 35 35 31 30 27 30 29 27
32 32 32 31 32 30 31 33 30 31 32 33 36 37 38 39 35 20 14 14 21 24 20 21 30 40 40 37 32 30 33 36 39 37 37 33 31 30 30 27 27 26 25
40 38 41 35 33 31 32 29 31 29 27 30 30 34 35 32 42 41 37 28 17 18 26 21 22 25 35 40 38 33 34 34 31 33 34 32 36 35 31 33 33 31 32
31 35 35 32 35 35 33 31 31 29 30 32 30 24 28 32 28 30 39 40 35 31 26 28 30 28 23 24 25 29 30 30 32 33 31 31 38 35 35 35 33 29 30
30 25 24 26 28 31 30 30 28 30 29 26 31 31 26 27 28 27 30 35 36 34 32 32 32 31 26 26 27 27 31 30 31 32 38 39 48 40 37 36 31 27 27
21 21 22 25 27 27 27 28 29 27 27 29 26 28 27 21 26 29 31 30 32 36 36 33 29 31 31 34 29 26 28 28 24 27 32 35 37 36 32 35 29 23 29
22 23 23 24 24 24 24 25 25 25 25 26 28 23 24 27 27 25 27 31 33 36 34 31 28 26 34 31 32 33 33 28 27 26 31 32 30 29 30 29 30 29 26
21 19 19 19 18 18 20 24 24 29 24 25 24 22 28 30 27 25 29 26 26 25 29 31 31 30 30 34 36 30 33 30 31 28 23 30 33 29 32 28 41 35 33
20 16 15 14 15 17 16 22 22 21 21 25 20 24 23 26 30 33 29 30 32 33 33 21 29 34 33 30 27 31 32 34 27 23 27 24 24 32 35 35 37 33 34
17 10 11 16 16 17 18 18 19 18 22 23 22 24 24 27 28 29 28 29 27 28 26 23 23 25 27 35 41 37 28 29 30 33 24 26 28 28 30 43 39 43 27
7 12 15 18 20 22 20 20 22 24 23 21 20 20 21 21 21 26 29 29 31 28 21 24 27 25 28 26 26 27 36 38 37 30 30 29 30 31 35 32 36 41 35
12 8 12 20 21 15 12 13 14 19 20 18 18 19 16 16 16 15 19 25 30 23 24 26 30 23 23 26 27 27 27 28 33 35 37 40 39 38 31 32 32 32 30
Wind_Direction
255 231 240 248 252 251 254 253 248 247 242 245 255 262 261 258 261 253 245 240 237 231 225 226 227 218 216 218 229 224 226 235 235 215 226 206 241 258 272 232 259 268 286
266 268 256 274 256 251 258 251 253 257 256 252 276 259 261 263 263 264 251 244 237 234 224 228 227 218 217 218 216 225 219 219 243 249 229 219 230 221 218 235 261 255 263
277 259 253 277 260 258 265 261 257 261 264 259 276 269 270 266 270 260 261 250 233 226 223 224 222 215 219 226 223 224 222 232 239 237 252 227 238 226 229 255 279 290 295
341 227 227 234 250 265 279 282 274 271 275 258 260 265 266 276 280 263 260 241 222 220 224 223 224 221 223 228 223 226 225 217 231 213 231 230 213 225 253 239 259 269 257
29 287 252 258 280 297 292 274 263 270 280 279 267 267 259 262 267 271 247 238 232 226 217 218 225 230 226 228 229 230 228 219 223 214 226 225 251 244 228 254 263 277 272
252 313 298 304 294 284 280 290 297 287 264 284 274 267 264 266 274 261 265 245 235 230 212 216 223 222 218 227 235 222 225 229 229 227 226 231 247 246 247 253 264 263 259
275 263 251 253 259 265 278 287 294 297 299 292 291 283 279 259 289 290 249 258 241 233 226 223 228 225 223 222 229 226 229 233 237 234 240 237 244 258 253 246 253 264 275
287 286 276 273 269 270 270 275 281 284 290 294 297 296 300 283 253 271 265 242 255 250 244 246 241 229 227 232 233 236 237 235 237 241 247 248 257 260 264 264 263 272 275
272 270 274 274 272 273 276 277 277 277 279 284 288 292 293 296 301 284 241 329 270 266 253 251 244 240 233 239 242 241 244 247 246 245 250 260 265 263 262 261 260 277 292
276 278 276 274 276 273 269 271 278 280 274 276 283 283 284 292 297 298 262 247 282 284 277 266 253 243 243 232 234 241 246 244 243 238 245 249 255 258 254 254 262 261 261
275 275 275 273 271 272 272 273 271 275 276 268 264 263 271 271 273 280 275 263 250 238 243 280 251 243 236 235 237 236 244 242 245 244 243 247 252 251 257 253 263 260 261
277 274 270 273 274 272 269 271 273 273 274 274 270 259 266 273 274 271 269 262 245 236 228 268 247 243 244 242 240 240 240 241 244 245 248 246 248 251 251 262 260 257 267
285 277 273 279 278 273 271 269 270 269 266 263 265 264 268 274 273 263 260 255 255 239 243 248 255 232 252 253 246 246 240 237 243 246 245 243 235 243 258 259 258 258 257
285 280 275 274 276 273 274 273 270 267 263 261 262 266 264 264 262 256 256 235 257 252 243 243 240 244 249 248 241 240 236 236 240 244 246 246 238 239 242 248 249 246 244
280 272 274 274 273 270 269 269 264 263 263 262 261 259 258 259 258 236 243 243 251 251 253 248 244 239 244 249 245 240 239 239 239 243 244 249 245 241 241 246 242 238 242
277 271 270 275 267 264 266 272 265 271 266 259 258 262 263 267 268 267 276 247 234 250 250 261 248 243 241 244 243 242 245 247 244 249 248 240 241 238 238 231 231 231 242
276 275 270 268 268 264 259 262 270 272 268 267 271 266 258 265 266 268 264 268 264 256 253 259 265 254 242 243 247 246 248 251 253 248 248 247 241 234 239 236 238 242 248
281 272 264 263 269 264 261 263 262 264 266 270 263 267 264 258 260 263 262 262 262 262 258 259 259 248 231 234 245 250 251 252 253 246 236 256 250 233 231 238 242 247 246
287 271 262 261 263 263 262 258 262 260 264 266 274 261 265 271 254 253 258 256 255 258 262 261 257 242 238 239 242 256 252 254 260 253 245 240 238 233 232 240 244 254 232
297 266 261 268 269 269 265 263 259 258 261 264 263 268 265 285 263 253 250 252 252 253 256 257 259 246 245 240 248 247 251 254 256 250 245 240 236 239 236 235 236 233 219
291 287 276 272 270 268 268 268 270 270 261 264 260 259 268 265 269 277 262 255 253 250 248 241 243 251 236 233 234 239 241 247 244 248 261 253 245 239 227 249 241 234 232
291 287 286 282 276 271 280 277 276 270 268 267 265 264 261 257 255 267 259 249 254 253 247 248 247 234 239 234 245 250 238 244 247 258 262 248 243 241 237 240 224 223 220
288 280 282 289 289 287 283 265 303 267 263 272 272 272 256 259 254 247 257 254 253 257 260 253 243 231 228 229 234 244 247 236 237 252 262 271 259 245 236 229 227 240 219
246 287 298 294 294 279 279 278 273 261 269 268 271 264 271 265 262 251 249 255 249 259 226 239 260 260 247 240 235 233 230 240 244 242 251 263 268 265 266 245 259 236 224
350 270 307 311 306 308 298 287 275 272 271 271 276 261 271 264 249 262 240 242 251 247 248 242 253 256 253 250 253 249 244 245 245 250 245 253 256 262 262 262 248 238 221
29 355 319 318 314 316 304 284 291 297 288 276 273 271 280 272 272 277 277 283 254 240 253 246 242 256 249 256 256 256 253 254 248 245 245 246 250 252 257 255 246 233 212